﻿_id,日時,平均風速(m/s),平均風向,最大瞬間風速(m/s),最大風速時風向,気温(℃),湿度(%),10分間移動積算雨量(mm),1時間移動積算雨量(mm),日雨量(mm),累計雨量(mm),日射(日積算)(MJ/m2),日照(日積算)(min),現地気圧(hPa),海面気圧(hPa)
1,2023-05-15T00:00:00,0.4,北,1,北西,15,98.2,0,0,9.5,14.5,6.54,20,997,1010.8
2,2023-05-15T00:01:00,0.4,北,1.4,北西,15.1,98.2,0,0,0,14.5,0,0,997,1010.8
3,2023-05-15T00:02:00,0.4,北,1.4,北西,15.2,98.2,0,0,0,14.5,0,0,997,1010.8
4,2023-05-15T00:03:00,0.4,北,1.4,北西,15.1,98.2,0,0,0,14.5,0,0,997,1010.8
5,2023-05-15T00:04:00,0.4,北,1.4,北西,15.1,98.2,0,0,0,14.5,0,0,997,1010.8
6,2023-05-15T00:05:00,0.4,北北西,1.4,北西,15.1,98.2,0,0,0,14.5,0,0,997,1010.8
7,2023-05-15T00:06:00,0.4,北北西,1.4,北西,15,98.2,0,0,0,14.5,0,0,997,1010.8
8,2023-05-15T00:07:00,0.5,北北西,1.4,北西,15,98.1,0,0,0,14.5,0,0,997,1010.8
9,2023-05-15T00:08:00,0.4,北西,1.4,北西,15.1,98.2,0,0,0,14.5,0,0,997,1010.8
10,2023-05-15T00:09:00,0.4,北西,1.4,北西,15,98.2,0,0,0,14.5,0,0,997,1010.8
11,2023-05-15T00:10:00,0.4,北西,1.4,北西,15,98.1,0,0,0,14.5,0,0,996.9,1010.7
12,2023-05-15T00:11:00,0.3,北西,1.2,北北東,15,98.1,0,0,0,14.5,0,0,997,1010.8
13,2023-05-15T00:12:00,0.3,西北西,1,西,15,98.1,0,0,0,14.5,0,0,997,1010.8
14,2023-05-15T00:13:00,0.3,西北西,1.2,西,14.9,98.1,0,0,0,14.5,0,0,997,1010.8
15,2023-05-15T00:14:00,0.4,西,1.3,西,14.8,98.1,0,0,0,14.5,0,0,997,1010.8
16,2023-05-15T00:15:00,0.3,西,1.3,西,14.8,98,0,0,0,14.5,0,0,997,1010.8
17,2023-05-15T00:16:00,0.3,西,1.3,西,14.8,98.1,0,0,0,14.5,0,0,997,1010.8
18,2023-05-15T00:17:00,0.3,西南西,1.3,西,14.8,98.1,0,0,0,14.5,0,0,997,1010.8
19,2023-05-15T00:18:00,0.3,西南西,1.3,西,14.7,98.1,0,0,0,14.5,0,0,997,1010.8
20,2023-05-15T00:19:00,0.3,南西,1.3,西,14.8,98.1,0,0,0,14.5,0,0,997.1,1010.9
21,2023-05-15T00:20:00,0.4,南西,1.3,西,14.8,98.1,0,0,0,14.5,0,0,997,1010.8
22,2023-05-15T00:21:00,0.4,南西,1.3,西,14.8,98.1,0,0,0,14.5,0,0,997.1,1010.9
23,2023-05-15T00:22:00,0.4,南西,1.3,西,14.9,98.2,0,0,0,14.5,0,0,997.1,1010.9
24,2023-05-15T00:23:00,0.5,南西,1.3,西,14.9,98.2,0,0,0,14.5,0,0,997.1,1010.9
25,2023-05-15T00:24:00,0.5,西南西,1.4,西,15,98.2,0,0,0,14.5,0,0,997.1,1010.9
26,2023-05-15T00:25:00,0.6,西南西,1.5,西,15.1,98.3,0,0,0,14.5,0,0,997.1,1010.9
27,2023-05-15T00:26:00,0.7,西,1.5,西,15,98.3,0,0,0,14.5,0,0,997.1,1010.9
28,2023-05-15T00:27:00,0.9,西,2,西南西,14.9,98.2,0,0,0,14.5,0,0,997,1010.8
29,2023-05-15T00:28:00,1,西,2.2,西,14.8,98.1,0,0,0,14.5,0,0,997,1010.8
30,2023-05-15T00:29:00,1.2,西,2.4,西,14.8,98.1,0,0,0,14.5,0,0,997,1010.8
31,2023-05-15T00:30:00,1.3,西,2.4,西,14.8,98.1,0,0,0,14.5,0,0,997,1010.8
32,2023-05-15T00:31:00,1.4,西,2.4,西,14.7,98.1,0,0,0,14.5,0,0,997,1010.8
33,2023-05-15T00:32:00,1.5,西,2.4,西,14.6,98.1,0,0,0,14.5,0,0,997,1010.8
34,2023-05-15T00:33:00,1.5,西,2.4,西,14.7,98.1,0,0,0,14.5,0,0,997,1010.8
35,2023-05-15T00:34:00,1.6,西,2.4,西,14.7,98.2,0,0,0,14.5,0,0,996.9,1010.7
36,2023-05-15T00:35:00,1.6,西,2.4,西,14.7,98.1,0,0,0,14.5,0,0,996.9,1010.7
37,2023-05-15T00:36:00,1.6,西,2.4,西,14.7,98.1,0,0,0,14.5,0,0,996.9,1010.7
38,2023-05-15T00:37:00,1.6,西,2.4,西,14.7,98.2,0,0,0,14.5,0,0,996.9,1010.7
39,2023-05-15T00:38:00,1.5,西,2.4,西,14.6,98.1,0,0,0,14.5,0,0,996.9,1010.7
40,2023-05-15T00:39:00,1.4,西,2.1,西,14.5,98.1,0,0,0,14.5,0,0,996.9,1010.7
41,2023-05-15T00:40:00,1.3,西,2.1,西,14.6,98.1,0,0,0,14.5,0,0,997,1010.8
42,2023-05-15T00:41:00,1.2,西,2,西北西,14.4,98.1,0,0,0,14.5,0,0,996.9,1010.7
43,2023-05-15T00:42:00,1.2,西,1.8,西,14.4,98.1,0,0,0,14.5,0,0,996.9,1010.7
44,2023-05-15T00:43:00,1.1,西,1.8,西,14.4,98.1,0,0,0,14.5,0,0,997,1010.8
45,2023-05-15T00:44:00,1.1,西,2,西北西,14.5,98.1,0,0,0,14.5,0,0,996.9,1010.7
46,2023-05-15T00:45:00,1.2,西,2,西北西,14.5,98.2,0,0,0,14.5,0,0,996.9,1010.7
47,2023-05-15T00:46:00,1.2,西,2,西北西,14.6,98.3,0,0,0,14.5,0,0,996.9,1010.7
48,2023-05-15T00:47:00,1.2,西,2,西北西,14.6,98.3,0,0,0,14.5,0,0,996.9,1010.7
49,2023-05-15T00:48:00,1.3,西,2,西北西,14.6,98.3,0,0,0,14.5,0,0,996.9,1010.7
50,2023-05-15T00:49:00,1.3,西,2,西北西,14.5,98.2,0,0,0,14.5,0,0,996.9,1010.7
51,2023-05-15T00:50:00,1.4,西,2,西北西,14.5,98.2,0,0,0,14.5,0,0,996.9,1010.7
52,2023-05-15T00:51:00,1.4,西,2,西北西,14.5,98.2,0,0,0,14.5,0,0,996.9,1010.7
53,2023-05-15T00:52:00,1.3,西,2,西北西,14.4,98.2,0,0,0,14.5,0,0,996.9,1010.7
54,2023-05-15T00:53:00,1.3,西,2,西北西,14.4,98.2,0,0,0,14.5,0,0,996.9,1010.7
55,2023-05-15T00:54:00,1.2,西北西,2,西,14.5,98.2,0,0,0,14.5,0,0,996.9,1010.7
56,2023-05-15T00:55:00,1.2,西北西,2,西,14.5,98.2,0,0,0,14.5,0,0,996.9,1010.7
57,2023-05-15T00:56:00,1.2,西北西,1.8,西,14.6,98.3,0,0,0,14.5,0,0,996.9,1010.7
58,2023-05-15T00:57:00,1.1,西,1.8,西,14.5,98.2,0,0,0,14.5,0,0,996.9,1010.7
59,2023-05-15T00:58:00,1.1,西,1.6,西,14.4,98.2,0,0,0,14.5,0,0,996.9,1010.7
60,2023-05-15T00:59:00,1.1,西,1.6,西,14.5,98.2,0,0,0,14.5,0,0,996.9,1010.7
61,2023-05-15T01:00:00,1.1,西,1.6,西,14.5,98.2,0,0,0,14.5,0,0,996.9,1010.7
62,2023-05-15T01:01:00,1.1,西,1.6,西,14.4,98.2,0,0,0,14.5,0,0,996.9,1010.7
63,2023-05-15T01:02:00,1.1,西,1.6,西,14.6,98.3,0,0,0,14.5,0,0,996.9,1010.7
64,2023-05-15T01:03:00,1.1,西,1.6,西,14.6,98.3,0,0,0,14.5,0,0,996.9,1010.7
65,2023-05-15T01:04:00,1.1,西,1.6,西,14.7,98.3,0,0,0,14.5,0,0,996.8,1010.6
66,2023-05-15T01:05:00,1.1,西,1.6,西,14.6,98.3,0,0,0,14.5,0,0,996.8,1010.6
67,2023-05-15T01:06:00,1.1,西,1.5,西北西,14.5,98.3,0,0,0,14.5,0,0,996.8,1010.6
68,2023-05-15T01:07:00,1,西,1.5,西北西,14.5,98.2,0,0,0,14.5,0,0,996.8,1010.6
69,2023-05-15T01:08:00,1,西,1.5,西北西,14.5,98.3,0,0,0,14.5,0,0,996.8,1010.6
70,2023-05-15T01:09:00,0.9,西,1.5,西北西,14.5,98.3,0,0,0,14.5,0,0,996.8,1010.6
71,2023-05-15T01:10:00,0.8,西,1.5,西北西,14.5,98.3,0,0,0,14.5,0,0,996.9,1010.7
72,2023-05-15T01:11:00,0.7,西北西,1.5,西北西,14.5,98.3,0,0,0,14.5,0,0,996.9,1010.7
73,2023-05-15T01:12:00,0.6,西北西,1.5,西北西,14.6,98.3,0,0,0,14.5,0,0,996.9,1010.7
74,2023-05-15T01:13:00,0.6,西,1.5,西北西,14.6,98.3,0,0,0,14.5,0,0,996.9,1010.7
75,2023-05-15T01:14:00,0.5,西,1.5,西北西,14.7,98.4,0,0,0,14.5,0,0,996.9,1010.7
76,2023-05-15T01:15:00,0.5,西北西,1.2,北西,14.7,98.4,0,0,0,14.5,0,0,996.9,1010.7
77,2023-05-15T01:16:00,0.4,西北西,1.2,北西,14.8,98.4,0,0,0,14.5,0,0,996.9,1010.7
78,2023-05-15T01:17:00,0.4,西北西,1.2,北西,14.9,98.5,0,0,0,14.5,0,0,996.9,1010.7
79,2023-05-15T01:18:00,0.3,北西,1.2,北西,14.8,98.5,0,0,0,14.5,0,0,996.9,1010.7
80,2023-05-15T01:19:00,0.3,北北西,1.2,北西,14.8,98.4,0,0,0,14.5,0,0,996.9,1010.7
81,2023-05-15T01:20:00,0.3,北,1.2,北西,14.9,98.3,0,0,0,14.5,0,0,996.9,1010.7
82,2023-05-15T01:21:00,0.4,北,1.3,東北東,14.8,98.4,0,0,0,14.5,0,0,996.9,1010.7
83,2023-05-15T01:22:00,0.5,北北東,1.5,東北東,14.9,98.4,0,0,0,14.5,0,0,996.9,1010.7
84,2023-05-15T01:23:00,0.6,北北東,1.5,東北東,14.9,98.4,0,0,0,14.5,0,0,996.9,1010.7
85,2023-05-15T01:24:00,0.6,北北東,1.5,東北東,15,98.5,0,0,0,14.5,0,0,996.9,1010.7
86,2023-05-15T01:25:00,0.6,北東,1.5,東北東,14.9,98.4,0,0,0,14.5,0,0,996.9,1010.7
87,2023-05-15T01:26:00,0.6,北東,1.5,東北東,14.9,98.4,0,0,0,14.5,0,0,996.9,1010.7
88,2023-05-15T01:27:00,0.6,北東,1.5,東北東,15,98.4,0,0,0,14.5,0,0,996.9,1010.7
89,2023-05-15T01:28:00,0.6,北東,1.5,東北東,15,98.4,0,0,0,14.5,0,0,997,1010.8
90,2023-05-15T01:29:00,0.6,北東,1.5,東北東,15,98.5,0,0,0,14.5,0,0,997,1010.8
91,2023-05-15T01:30:00,0.6,北東,1.7,西北西,14.9,98.4,0,0,0,14.5,0,0,997,1010.8
92,2023-05-15T01:31:00,0.7,北北東,1.9,西,14.9,98.4,0,0,0,14.5,0,0,997,1010.8
93,2023-05-15T01:32:00,0.8,北,1.9,西,14.6,98.2,0,0,0,14.5,0,0,997.1,1010.9
94,2023-05-15T01:33:00,0.8,北北西,1.9,西,14.5,98.1,0,0,0,14.5,0,0,997.1,1010.9
95,2023-05-15T01:34:00,0.8,北西,1.9,西,14.5,98.2,0,0,0,14.5,0,0,997,1010.8
96,2023-05-15T01:35:00,0.8,西北西,1.9,西,14.6,98.3,0,0,0,14.5,0,0,997,1010.8
97,2023-05-15T01:36:00,0.8,西北西,1.9,西,14.8,98.4,0,0,0,14.5,0,0,997,1010.8
98,2023-05-15T01:37:00,0.9,西北西,1.9,西,14.7,98.4,0,0,0,14.5,0,0,997.1,1010.9
99,2023-05-15T01:38:00,0.9,西,1.9,西,14.8,98.4,0,0,0,14.5,0,0,997,1010.8
100,2023-05-15T01:39:00,1.1,西,1.9,西,14.8,98.4,0,0,0,14.5,0,0,997.1,1010.9
101,2023-05-15T01:40:00,1.1,西,1.9,西,14.8,98.4,0,0,0,14.5,0,0,997.1,1010.9
102,2023-05-15T01:41:00,1.2,西,2.3,西,14.6,98.3,0,0,0,14.5,0,0,997.1,1010.9
103,2023-05-15T01:42:00,1.2,西,2.3,西,14.5,98.3,0,0,0,14.5,0,0,997,1010.8
104,2023-05-15T01:43:00,1.3,西,2.3,西,14.5,98.2,0,0,0,14.5,0,0,997,1010.8
105,2023-05-15T01:44:00,1.4,西,2.3,西,14.5,98.2,0,0,0,14.5,0,0,997,1010.8
106,2023-05-15T01:45:00,1.5,西,2.3,西,14.4,98.2,0,0,0,14.5,0,0,997,1010.8
107,2023-05-15T01:46:00,1.5,西,2.3,西,14.4,98.2,0,0,0,14.5,0,0,997,1010.8
108,2023-05-15T01:47:00,1.6,西,2.3,西,14.4,98.3,0,0,0,14.5,0,0,996.9,1010.7
109,2023-05-15T01:48:00,1.6,西,2.3,西,14.4,98.3,0,0,0,14.5,0,0,996.9,1010.7
110,2023-05-15T01:49:00,1.6,西,2.3,西,14.5,98.3,0,0,0,14.5,0,0,996.9,1010.7
111,2023-05-15T01:50:00,1.6,西,2.3,西,14.4,98.3,0,0,0,14.5,0,0,996.9,1010.7
112,2023-05-15T01:51:00,1.6,西,2.3,西,14.4,98.3,0,0,0,14.5,0,0,996.9,1010.7
113,2023-05-15T01:52:00,1.6,西,2.8,西,14.4,98.3,0,0,0,14.5,0,0,996.9,1010.7
114,2023-05-15T01:53:00,1.7,西,2.8,西,14.4,98.3,0,0,0,14.5,0,0,996.9,1010.7
115,2023-05-15T01:54:00,1.7,西,2.8,西,14.3,98.2,0,0,0,14.5,0,0,997,1010.8
116,2023-05-15T01:55:00,1.7,西,2.8,西,14.3,98.2,0,0,0,14.5,0,0,997,1010.8
117,2023-05-15T01:56:00,1.7,西,2.8,西,14.3,98.3,0,0,0,14.5,0,0,997,1010.8
118,2023-05-15T01:57:00,1.7,西,2.8,西,14.2,98.3,0,0,0,14.5,0,0,997,1010.8
119,2023-05-15T01:58:00,1.7,西,2.8,西,14.3,98.3,0,0,0,14.5,0,0,997,1010.8
120,2023-05-15T01:59:00,1.7,西,2.8,西,14.4,98.4,0,0,0,14.5,0,0,997,1010.8
121,2023-05-15T02:00:00,1.7,西,2.8,西,14.3,98.3,0,0,0,14.5,0,0,997,1010.8
122,2023-05-15T02:01:00,1.7,西,2.8,西,14.4,98.3,0,0,0,14.5,0,0,997,1010.8
123,2023-05-15T02:02:00,1.6,西,2.7,西,14.4,98.4,0,0,0,14.5,0,0,997,1010.8
124,2023-05-15T02:03:00,1.5,西,2.3,西,14.3,98.3,0,0,0,14.5,0,0,997,1010.8
125,2023-05-15T02:04:00,1.5,西,2.2,西,14.3,98.3,0,0,0,14.5,0,0,997,1010.8
126,2023-05-15T02:05:00,1.5,西,2.2,西,14.4,98.3,0,0,0,14.5,0,0,997,1010.8
127,2023-05-15T02:06:00,1.6,西,2.4,西,14.3,98.4,0,0,0,14.5,0,0,997,1010.8
128,2023-05-15T02:07:00,1.6,西,2.5,西,14.2,98.3,0,0,0,14.5,0,0,997,1010.8
129,2023-05-15T02:08:00,1.6,西,2.5,西,14.2,98.3,0,0,0,14.5,0,0,997,1010.8
130,2023-05-15T02:09:00,1.6,西,2.5,西,14.3,98.3,0,0,0,14.5,0,0,997,1010.8
131,2023-05-15T02:10:00,1.6,西,2.5,西,14.2,98.3,0,0,0,14.5,0,0,996.9,1010.7
132,2023-05-15T02:11:00,1.6,西,2.5,西,14.3,98.3,0,0,0,14.5,0,0,996.9,1010.7
133,2023-05-15T02:12:00,1.7,西,2.5,西,14.4,98.4,0,0,0,14.5,0,0,996.9,1010.7
134,2023-05-15T02:13:00,1.7,西,2.5,西,14.3,98.4,0,0,0,14.5,0,0,996.9,1010.7
135,2023-05-15T02:14:00,1.7,西,2.5,西,14.3,98.4,0,0,0,14.5,0,0,996.9,1010.7
136,2023-05-15T02:15:00,1.6,西,2.5,西,14.2,98.4,0,0,0,14.5,0,0,996.9,1010.7
137,2023-05-15T02:16:00,1.5,西,2.5,西,14.2,98.4,0,0,0,14.5,0,0,996.9,1010.7
138,2023-05-15T02:17:00,1.5,西,2.1,西南西,14.3,98.4,0,0,0,14.5,0,0,997,1010.8
139,2023-05-15T02:18:00,1.5,西,1.9,西北西,14.4,98.5,0,0,0,14.5,0,0,997,1010.8
140,2023-05-15T02:19:00,1.5,西,1.9,西北西,14.4,98.5,0,0,0,14.5,0,0,996.9,1010.7
141,2023-05-15T02:20:00,1.5,西,2,西,14.3,98.4,0,0,0,14.5,0,0,996.9,1010.7
142,2023-05-15T02:21:00,1.6,西,2.4,西,14.2,98.4,0,0,0,14.5,0,0,996.9,1010.7
143,2023-05-15T02:22:00,1.6,西,2.4,西,14.2,98.3,0,0,0,14.5,0,0,996.9,1010.7
144,2023-05-15T02:23:00,1.6,西,2.4,西,14.2,98.4,0,0,0,14.5,0,0,996.9,1010.7
145,2023-05-15T02:24:00,1.6,西,2.4,西,14.2,98.3,0,0,0,14.5,0,0,996.8,1010.6
146,2023-05-15T02:25:00,1.7,西,2.4,西,14.3,98.3,0,0,0,14.5,0,0,996.8,1010.6
147,2023-05-15T02:26:00,1.7,西,2.4,西,14.3,98.4,0,0,0,14.5,0,0,996.8,1010.6
148,2023-05-15T02:27:00,1.6,西,2.4,西,14.3,98.5,0,0,0,14.5,0,0,996.8,1010.6
149,2023-05-15T02:28:00,1.6,西,2.4,西,14.2,98.4,0,0,0,14.5,0,0,996.7,1010.5
150,2023-05-15T02:29:00,1.6,西,2.4,西,14.3,98.4,0,0,0,14.5,0,0,996.8,1010.6
151,2023-05-15T02:30:00,1.5,西,2.4,西,14.3,98.4,0,0,0,14.5,0,0,996.8,1010.6
152,2023-05-15T02:31:00,1.4,西,2.2,西,14.4,98.5,0,0,0,14.5,0,0,996.8,1010.6
153,2023-05-15T02:32:00,1.4,西,2.2,西,14.4,98.5,0,0,0,14.5,0,0,996.8,1010.6
154,2023-05-15T02:33:00,1.3,西,1.8,西,14.3,98.5,0,0,0,14.5,0,0,996.8,1010.6
155,2023-05-15T02:34:00,1.3,西,1.8,西,14.3,98.4,0,0,0,14.5,0,0,996.8,1010.6
156,2023-05-15T02:35:00,1.2,西,1.7,西,14.3,98.4,0,0,0,14.5,0,0,996.8,1010.6
157,2023-05-15T02:36:00,1.2,西,1.7,西,14.4,98.4,0,0,0,14.5,0,0,996.8,1010.6
158,2023-05-15T02:37:00,1.2,西,1.7,西,14.4,98.5,0,0,0,14.5,0,0,996.8,1010.6
159,2023-05-15T02:38:00,1.1,西,1.7,西,14.3,98.4,0,0,0,14.5,0,0,996.8,1010.6
160,2023-05-15T02:39:00,1.1,西,1.7,西,14.4,98.4,0,0,0,14.5,0,0,996.7,1010.5
161,2023-05-15T02:40:00,1,西北西,1.5,西北西,14.3,98.4,0,0,0,14.5,0,0,996.7,1010.5
162,2023-05-15T02:41:00,1,西北西,1.5,西北西,14.4,98.4,0,0,0,14.5,0,0,996.8,1010.6
163,2023-05-15T02:42:00,0.9,西北西,1.5,西北西,14.4,98.4,0,0,0,14.5,0,0,996.8,1010.6
164,2023-05-15T02:43:00,0.9,西北西,1.4,西,14.4,98.4,0,0,0,14.5,0,0,996.8,1010.6
165,2023-05-15T02:44:00,0.8,西北西,1.3,西,14.4,98.4,0,0,0,14.5,0,0,996.8,1010.6
166,2023-05-15T02:45:00,0.8,西北西,1.3,西,14.4,98.4,0,0,0,14.5,0,0,996.8,1010.6
167,2023-05-15T02:46:00,0.7,西北西,1.3,西,14.4,98.4,0,0,0,14.5,0,0,996.8,1010.6
168,2023-05-15T02:47:00,0.7,西北西,1.2,北西,14.4,98.4,0,0,0,14.5,0,0,996.8,1010.6
169,2023-05-15T02:48:00,0.7,北西,1.7,北北東,14.4,98.4,0,0,0,14.5,0,0,996.8,1010.6
170,2023-05-15T02:49:00,0.7,北西,1.8,北,14.4,98.4,0,0,0,14.5,0,0,996.8,1010.6
171,2023-05-15T02:50:00,0.7,北西,2.1,北東,14.5,98.4,0,0,0,14.5,0,0,996.8,1010.6
172,2023-05-15T02:51:00,0.8,北西,2.2,北東,14.5,98.5,0,0,0,14.5,0,0,996.8,1010.6
173,2023-05-15T02:52:00,0.9,北北西,2.2,北東,14.5,98.5,0,0,0,14.5,0,0,996.8,1010.6
174,2023-05-15T02:53:00,0.9,北北西,2.2,北東,14.6,98.5,0,0,0,14.5,0,0,996.9,1010.7
175,2023-05-15T02:54:00,1,北,2.2,北東,14.6,98.5,0,0,0,14.5,0,0,996.8,1010.6
176,2023-05-15T02:55:00,1,北,2.2,北東,14.6,98.5,0,0,0,14.5,0,0,996.8,1010.6
177,2023-05-15T02:56:00,1.1,北北東,2.2,北東,14.7,98.5,0,0,0,14.5,0,0,996.8,1010.6
178,2023-05-15T02:57:00,1.1,北北東,2.2,北東,14.8,98.5,0,0,0,14.5,0,0,996.8,1010.6
179,2023-05-15T02:58:00,1.1,北北東,2.2,北東,14.7,98.5,0,0,0,14.5,0,0,996.9,1010.7
180,2023-05-15T02:59:00,1.1,北北東,2.2,北東,14.8,98.5,0,0,0,14.5,0,0,996.8,1010.6
181,2023-05-15T03:00:00,1,北北東,2.2,北東,14.7,98.5,0,0,0,14.5,0,0,996.9,1010.7
182,2023-05-15T03:01:00,1,北北東,2.2,北東,14.8,98.4,0,0,0,14.5,0,0,996.9,1010.7
183,2023-05-15T03:02:00,0.9,北北東,1.7,北北東,14.8,98.5,0,0,0,14.5,0,0,996.9,1010.7
184,2023-05-15T03:03:00,0.9,北,1.7,北北東,14.8,98.5,0,0,0,14.5,0,0,996.9,1010.7
185,2023-05-15T03:04:00,0.9,北,2.5,北北東,14.7,98.4,0,0,0,14.5,0,0,996.9,1010.7
186,2023-05-15T03:05:00,0.9,北,2.5,北北東,14.8,98.4,0,0,0,14.5,0,0,996.9,1010.7
187,2023-05-15T03:06:00,1,北北東,2.5,北北東,14.8,98.4,0,0,0,14.5,0,0,997,1010.8
188,2023-05-15T03:07:00,1.1,北北東,2.5,北北東,14.8,98.4,0,0,0,14.5,0,0,996.9,1010.7
189,2023-05-15T03:08:00,1.2,北北東,2.5,北北東,14.7,98.4,0,0,0,14.5,0,0,996.9,1010.7
190,2023-05-15T03:09:00,1.3,北北東,2.5,北北東,14.8,98.4,0,0,0,14.5,0,0,996.9,1010.7
191,2023-05-15T03:10:00,1.4,北北東,2.5,北北東,14.9,98.4,0,0,0,14.5,0,0,996.9,1010.7
192,2023-05-15T03:11:00,1.3,北北東,2.5,北北東,14.8,98.4,0,0,0,14.5,0,0,996.9,1010.7
193,2023-05-15T03:12:00,1.3,北北東,2.5,北北東,14.7,98.4,0,0,0,14.5,0,0,996.9,1010.7
194,2023-05-15T03:13:00,1.3,北北東,2.5,北北東,14.7,98.4,0,0,0,14.5,0,0,996.9,1010.7
195,2023-05-15T03:14:00,1.2,北北東,2.4,北東,14.7,98.3,0,0,0,14.5,0,0,996.9,1010.7
196,2023-05-15T03:15:00,1.1,北北東,2.4,北東,14.7,98.3,0,0,0,14.5,0,0,996.9,1010.7
197,2023-05-15T03:16:00,1.1,北,2.4,北東,14.7,98.3,0,0,0,14.5,0,0,996.9,1010.7
198,2023-05-15T03:17:00,1,北,2.4,北東,14.6,98.3,0,0,0,14.5,0,0,996.9,1010.7
199,2023-05-15T03:18:00,0.9,北北西,2,北東,14.6,98.3,0,0,0,14.5,0,0,996.9,1010.7
200,2023-05-15T03:19:00,0.8,北北西,1.7,北北東,14.6,98.3,0,0,0,14.5,0,0,996.9,1010.7
201,2023-05-15T03:20:00,0.7,北西,1.4,西北西,14.6,98.3,0,0,0,14.5,0,0,996.9,1010.7
202,2023-05-15T03:21:00,0.7,北西,1.4,西北西,14.6,98.3,0,0,0,14.5,0,0,997,1010.8
203,2023-05-15T03:22:00,0.7,西北西,1.4,西北西,14.5,98.3,0,0,0,14.5,0,0,997,1010.8
204,2023-05-15T03:23:00,0.7,西北西,1.4,西北西,14.5,98.2,0,0,0,14.5,0,0,997,1010.8
205,2023-05-15T03:24:00,0.7,西北西,1.4,西北西,14.5,98.3,0,0,0,14.5,0,0,997,1010.8
206,2023-05-15T03:25:00,0.7,西北西,1.4,西北西,14.5,98.3,0,0,0,14.5,0,0,997,1010.8
207,2023-05-15T03:26:00,0.8,西北西,1.6,西北西,14.5,98.3,0,0,0,14.5,0,0,996.9,1010.7
208,2023-05-15T03:27:00,0.8,西北西,1.6,西北西,14.5,98.2,0,0,0,14.5,0,0,997,1010.8
209,2023-05-15T03:28:00,0.8,西北西,1.6,西北西,14.5,98.3,0,0,0,14.5,0,0,997,1010.8
210,2023-05-15T03:29:00,0.9,西北西,1.6,西北西,14.5,98.2,0,0,0,14.5,0,0,997,1010.8
211,2023-05-15T03:30:00,0.9,西北西,1.6,西北西,14.3,98.2,0,0,0,14.5,0,0,997,1010.8
212,2023-05-15T03:31:00,1,西北西,1.6,西北西,14.4,98.2,0,0,0,14.5,0,0,997,1010.8
213,2023-05-15T03:32:00,1,西北西,1.6,西北西,14.5,98.2,0,0,0,14.5,0,0,997,1010.8
214,2023-05-15T03:33:00,1,西北西,1.6,西北西,14.3,98.2,0,0,0,14.5,0,0,997,1010.8
215,2023-05-15T03:34:00,1.1,西北西,1.6,西北西,14.3,98.2,0,0,0,14.5,0,0,997,1010.8
216,2023-05-15T03:35:00,1.1,西北西,1.6,西北西,14.3,98.2,0,0,0,14.5,0,0,997,1010.8
217,2023-05-15T03:36:00,1.1,西,2.1,西,14.3,98.2,0,0,0,14.5,0,0,997,1010.8
218,2023-05-15T03:37:00,1.1,西,2.1,西,14.3,98.2,0,0,0,14.5,0,0,997,1010.8
219,2023-05-15T03:38:00,1.1,西,2.1,西,14.3,98.2,0,0,0,14.5,0,0,996.9,1010.7
220,2023-05-15T03:39:00,1.1,西,2.1,西,14.3,98.2,0,0,0,14.5,0,0,996.9,1010.7
221,2023-05-15T03:40:00,1.1,西,2.1,西,14.3,98.2,0,0,0,14.5,0,0,997,1010.8
222,2023-05-15T03:41:00,1.1,西,2.1,西,14.3,98.2,0,0,0,14.5,0,0,996.9,1010.7
223,2023-05-15T03:42:00,1.1,西,2.1,西,14.4,98.2,0,0,0,14.5,0,0,996.9,1010.7
224,2023-05-15T03:43:00,1,西,2.1,西,14.4,98.2,0,0,0,14.5,0,0,996.9,1010.7
225,2023-05-15T03:44:00,0.9,西北西,2.1,西,14.4,98.3,0,0,0,14.5,0,0,996.9,1010.7
226,2023-05-15T03:45:00,0.9,西北西,2.1,西,14.4,98.3,0,0,0,14.5,0,0,996.9,1010.7
227,2023-05-15T03:46:00,0.7,西北西,1.8,西,14.4,98.2,0,0,0,14.5,0,0,996.9,1010.7
228,2023-05-15T03:47:00,0.6,西北西,1.8,西,14.4,98.2,0,0,0,14.5,0,0,996.9,1010.7
229,2023-05-15T03:48:00,0.4,西北西,1.6,西,14.4,98.2,0,0,0,14.5,0,0,996.9,1010.7
230,2023-05-15T03:49:00,0.4,北西,1.3,西北西,14.4,98.2,0,0,0,14.5,0,0,996.9,1010.7
231,2023-05-15T03:50:00,0.3,北西,1.3,西北西,14.4,98.2,0,0,0,14.5,0,0,996.9,1010.7
232,2023-05-15T03:51:00,0.2,静穏,0.9,北西,14.5,98.2,0,0,0,14.5,0,0,996.9,1010.7
233,2023-05-15T03:52:00,0.2,静穏,0.6,北北西,14.5,98.2,0,0,0,14.5,0,0,996.9,1010.7
234,2023-05-15T03:53:00,0.2,静穏,0.7,東北東,14.4,98.2,0,0,0,14.5,0,0,996.9,1010.7
235,2023-05-15T03:54:00,0.2,静穏,0.7,東北東,14.4,98.2,0,0,0,14.5,0,0,996.9,1010.7
236,2023-05-15T03:55:00,0.3,北北西,0.8,北,14.4,98.2,0,0,0,14.5,0,0,996.9,1010.7
237,2023-05-15T03:56:00,0.3,北,1.1,北北東,14.5,98.2,0,0,0,14.5,0,0,996.9,1010.7
238,2023-05-15T03:57:00,0.4,北,1.1,北北東,14.5,98.2,0,0,0,14.5,0,0,996.9,1010.7
239,2023-05-15T03:58:00,0.4,北北東,1.1,北北東,14.6,98.3,0,0,0,14.5,0,0,996.9,1010.7
240,2023-05-15T03:59:00,0.5,北北東,1.2,北北東,14.5,98.3,0,0,0,14.5,0,0,996.9,1010.7
241,2023-05-15T04:00:00,0.5,北北東,1.2,北北東,14.6,98.3,0,0,0,14.5,0,0,996.9,1010.7
242,2023-05-15T04:01:00,0.6,北北東,1.2,北北東,14.6,98.3,0,0,0,14.5,0,0,996.9,1010.7
243,2023-05-15T04:02:00,0.6,北北東,1.2,北北東,14.5,98.3,0,0,0,14.5,0,0,996.9,1010.7
244,2023-05-15T04:03:00,0.6,北北東,1.2,北北東,14.5,98.2,0,0,0,14.5,0,0,996.9,1010.7
245,2023-05-15T04:04:00,0.6,北北東,1.2,北北東,14.5,98.2,0,0,0,14.5,0,0,996.9,1010.7
246,2023-05-15T04:05:00,0.7,北北東,1.5,北東,14.5,98.3,0,0,0,14.5,0,0,996.9,1010.7
247,2023-05-15T04:06:00,0.7,北北東,1.5,北東,14.5,98.2,0,0,0,14.5,0,0,996.9,1010.7
248,2023-05-15T04:07:00,0.7,北北東,1.5,北東,14.4,98.2,0,0,0,14.5,0,0,996.9,1010.7
249,2023-05-15T04:08:00,0.7,北北東,1.5,北東,14.5,98.3,0,0,0,14.5,0,0,996.9,1010.7
250,2023-05-15T04:09:00,0.7,北北東,1.5,北東,14.5,98.3,0,0,0,14.5,0,0,997,1010.8
251,2023-05-15T04:10:00,0.7,北北東,1.5,北東,14.5,98.3,0,0,0,14.5,0,0,997,1010.8
252,2023-05-15T04:11:00,0.7,北東,1.5,北東,14.5,98.3,0,0,0,14.5,0,0,997,1010.8
253,2023-05-15T04:12:00,0.8,北北東,1.7,西北西,14.5,98.3,0,0,0,14.5,0,0,997,1010.8
254,2023-05-15T04:13:00,0.9,北北東,1.8,西北西,14.4,98.2,0,0,0,14.5,0,0,997,1010.8
255,2023-05-15T04:14:00,0.9,北北東,1.8,西北西,14.4,98.1,0,0,0,14.5,0,0,997,1010.8
256,2023-05-15T04:15:00,0.9,北,1.8,西北西,14.4,98.2,0,0,0,14.5,0,0,997,1010.8
257,2023-05-15T04:16:00,0.9,北北西,1.8,西北西,14.4,98.2,0,0,0,14.5,0,0,997,1010.8
258,2023-05-15T04:17:00,0.9,北北西,1.8,西北西,14.4,98.2,0,0,0,14.5,0,0,997,1010.8
259,2023-05-15T04:18:00,0.9,北西,1.8,西北西,14.4,98.2,0,0,0,14.5,0,0,997,1010.8
260,2023-05-15T04:19:00,1,西北西,1.8,西北西,14.4,98.2,0,0,0,14.5,0,0,997.1,1010.9
261,2023-05-15T04:20:00,1,西北西,1.8,西北西,14.2,98.2,0,0,0,14.5,0,0,997.1,1010.9
262,2023-05-15T04:21:00,1.1,西,1.8,西北西,14.3,98.1,0,0,0,14.5,0,0,997.1,1010.9
263,2023-05-15T04:22:00,1,西,1.8,西北西,14.3,98.2,0,0,0,14.5,0,0,997.1,1010.9
264,2023-05-15T04:23:00,1,西,1.4,西南西,14.2,98.2,0,0,0,14.5,0,0,997.1,1010.9
265,2023-05-15T04:24:00,0.9,西,1.4,西南西,14.2,98.2,0,0,0,14.5,0,0,997.1,1010.9
266,2023-05-15T04:25:00,0.8,西,1.4,西南西,14.3,98.2,0,0,0,14.5,0,0,997.1,1010.9
267,2023-05-15T04:26:00,0.7,西,1.4,西南西,14.3,98.2,0,0,0,14.5,0,0,997.1,1010.9
268,2023-05-15T04:27:00,0.7,西,1.4,西南西,14.3,98.2,0,0,0,14.5,0,0,997.2,1011
269,2023-05-15T04:28:00,0.6,西,1.4,西南西,14.2,98.2,0,0,0,14.5,0,0,997.2,1011
270,2023-05-15T04:29:00,0.6,西,1.4,西南西,14.1,98.1,0,0,0,14.5,0,0,997.2,1011
271,2023-05-15T04:30:00,0.6,西,1.4,西南西,14.3,98.2,0,0,0,14.5,0,0,997.2,1011
272,2023-05-15T04:31:00,0.5,西,1.1,西,14.2,98.2,0,0,0,14.5,0,0,997.2,1011
273,2023-05-15T04:32:00,0.5,西,1.1,西,14.3,98.2,0,0,0,14.5,0,0,997.2,1011
274,2023-05-15T04:33:00,0.6,西,1.1,西,14.2,98.2,0,0,0,14.5,0,0,997.2,1011
275,2023-05-15T04:34:00,0.6,西,1.1,西,14.2,98.2,0,0,0,14.5,0,0,997.2,1011
276,2023-05-15T04:35:00,0.6,西,1.1,西,14.1,98.2,0,0,0,14.5,0,0,997.2,1011
277,2023-05-15T04:36:00,0.6,西,1.1,西,14.2,98.2,0,0,0,14.5,0,0,997.2,1011
278,2023-05-15T04:37:00,0.6,西,1.1,西,14.2,98.2,0,0,0,14.5,0,0,997.2,1011
279,2023-05-15T04:38:00,0.7,西,1.1,西,14.2,98.2,0,0,0,14.5,0,0,997.2,1011
280,2023-05-15T04:39:00,0.7,西,1.1,西,14.1,98.2,0,0,0,14.5,0,0,997.3,1011.1
281,2023-05-15T04:40:00,0.6,西,1.1,西,14.1,98.1,0,0,0,14.5,0,0,997.2,1011
282,2023-05-15T04:41:00,0.6,西,1,西,14.1,98.2,0,0,0,14.5,0,0,997.3,1011.1
283,2023-05-15T04:42:00,0.5,西,0.9,西南西,14.2,98.2,0,0,0,14.5,0,0,997.3,1011.1
284,2023-05-15T04:43:00,0.5,西,0.9,西南西,14.2,98.3,0,0,0,14.5,0,0,997.3,1011.1
285,2023-05-15T04:44:00,0.5,西,0.9,西南西,14.3,98.3,0,0,0,14.5,0,0,997.3,1011.1
286,2023-05-15T04:45:00,0.5,西,1.1,西,14.2,98.3,0,0,0,14.5,0,0,997.3,1011.1
287,2023-05-15T04:46:00,0.6,西,1.5,西,14.2,98.3,0,0,0,14.5,0,0,997.3,1011.1
288,2023-05-15T04:47:00,0.6,西,1.5,西,14.2,98.3,0,0,0,14.5,0,0,997.3,1011.1
289,2023-05-15T04:48:00,0.7,西,1.5,西,14.1,98.3,0,0,0,14.5,0,0,997.3,1011.1
290,2023-05-15T04:49:00,0.7,西,1.5,西,14.1,98.2,0,0,0,14.5,0,0,997.3,1011.1
291,2023-05-15T04:50:00,0.8,西,1.5,西,14,98.2,0,0,0,14.5,0,0,997.3,1011.1
292,2023-05-15T04:51:00,0.8,西北西,1.5,西,14,98.2,0,0,0,14.5,0,0,997.3,1011.1
293,2023-05-15T04:52:00,0.7,西,1.5,西,14,98.2,0,0,0,14.5,0,0,997.3,1011.1
294,2023-05-15T04:53:00,0.7,西,1.5,西,14.1,98.3,0,0,0,14.5,0,0,997.3,1011.1
295,2023-05-15T04:54:00,0.7,西,1.5,西,14,98.2,0,0,0,14.5,0,0,997.3,1011.1
296,2023-05-15T04:55:00,0.6,西,1.5,西,14,98.2,0,0,0,14.5,0,0,997.3,1011.1
297,2023-05-15T04:56:00,0.5,西,1.4,西南西,14,98.2,0,0,0,14.5,0,0,997.3,1011.1
298,2023-05-15T04:57:00,0.4,西,1.5,西,14,98.3,0,0,0,14.5,0,0,997.3,1011.1
299,2023-05-15T04:58:00,0.4,西南西,1.5,西,14,98.2,0,0,0,14.5,0,0,997.3,1011.1
300,2023-05-15T04:59:00,0.3,西南西,1.5,西,14,98.3,0,0,0,14.5,0,0,997.3,1011.1
301,2023-05-15T05:00:00,0.3,西南西,1.5,西,14,98.3,0,0,0,14.5,0,0,997.4,1011.2
302,2023-05-15T05:01:00,0.4,西南西,1.5,西,14,98.3,0,0,0,14.5,0,0,997.4,1011.2
303,2023-05-15T05:02:00,0.6,西,1.5,西,14.1,98.3,0,0,0,14.5,0,0,997.4,1011.2
304,2023-05-15T05:03:00,0.6,西,1.5,西,14,98.3,0,0,0,14.5,0,0,997.4,1011.2
305,2023-05-15T05:04:00,0.7,西,1.5,西,14.1,98.3,0,0,0,14.5,0,0,997.4,1011.2
306,2023-05-15T05:05:00,0.8,西,1.5,西,14,98.3,0,0,0,14.5,0,0,997.4,1011.2
307,2023-05-15T05:06:00,0.9,西,1.6,西北西,14,98.3,0,0,0,14.5,0,0,997.5,1011.3
308,2023-05-15T05:07:00,1,西,1.6,西北西,14.1,98.3,0,0,0,14.5,0,0,997.4,1011.2
309,2023-05-15T05:08:00,1,西,1.6,西北西,14.1,98.4,0,0,0,14.5,0,0,997.4,1011.2
310,2023-05-15T05:09:00,1.1,西,1.6,西北西,14,98.3,0,0,0,14.5,0,0,997.4,1011.2
311,2023-05-15T05:10:00,1.1,西,1.6,西北西,14,98.3,0,0,0,14.5,0,0,997.5,1011.3
312,2023-05-15T05:11:00,1,西,1.6,西北西,14.1,98.4,0,0,0,14.5,0,0,997.4,1011.2
313,2023-05-15T05:12:00,1,西,1.6,西北西,14.1,98.4,0,0,0,14.5,0,0,997.5,1011.3
314,2023-05-15T05:13:00,0.9,西,1.6,西北西,14.1,98.3,0,0,0,14.5,0,0,997.5,1011.3
315,2023-05-15T05:14:00,0.9,西,1.6,西北西,14.1,98.3,0,0,0,14.5,0,0,997.5,1011.3
316,2023-05-15T05:15:00,0.9,西,1.6,西北西,14,98.3,0,0,0,14.5,0,0,997.4,1011.2
317,2023-05-15T05:16:00,0.8,西北西,1.4,西,14.1,98.4,0,0,0,14.5,0,0,997.5,1011.3
318,2023-05-15T05:17:00,0.7,西北西,1.2,西,14.1,98.4,0,0,0,14.5,0,0,997.5,1011.3
319,2023-05-15T05:18:00,0.6,西北西,1.1,西北西,14.2,98.4,0,0,0,14.5,0,0,997.5,1011.3
320,2023-05-15T05:19:00,0.6,西北西,1.1,西北西,14.2,98.4,0,0,0,14.5,0,0,997.5,1011.3
321,2023-05-15T05:20:00,0.6,北西,1.1,西北西,14.2,98.4,0,0,0,14.5,0,0,997.6,1011.4